Simultaneous Nadir Overpasses (SNOs) Predictions

Prediction of SNOs between NOAA-15 and METOP-C Satellite Orbit:

Table of predicted SNOs for the next 14.0 days since TLE Epoch: 3/22/2023
Index Date (NOAA-15) Time (NOAA-15) Lat,Lon (NOAA-15) SZA (NOAA-15 ) Date (METOP-C) Time (METOP-C) Lat,Lon (METOP-C) SZA (METOP-C ) Distance(km) Time Diff (sec)
1 04/04/2023 19:56:51 -81.07, 99.46 102.88 04/04/2023 19:55:49 -81.08, 99.44 102.89 1.50 62
2 04/04/2023 20:47:26 81.08, -93.37 77.10 04/04/2023 20:46:30 81.07, -93.50 77.06 2.20 56
3 04/04/2023 21:37:53 -81.08, 73.91 102.92 04/04/2023 21:37:11 -81.07, 73.91 102.95 0.84 42
4 04/04/2023 22:28:27 81.07,-118.56 77.08 04/04/2023 22:27:51 81.08,-118.66 77.06 1.83 36
5 04/04/2023 23:18:54 -81.08, 48.72 102.94 04/04/2023 23:18:32 -81.08, 48.74 102.95 0.42 22
6 04/05/2023 00:09:28 81.07,-143.74 77.06 04/05/2023 00:09:12 81.09,-143.83 77.06 2.11 16
7 04/05/2023 00:59:55 -81.08, 23.54 102.97 04/05/2023 00:59:53 -81.09, 23.57 102.95 1.48 2
8 04/05/2023 01:50:30 81.08,-169.30 77.01 04/05/2023 01:50:34 81.08,-169.36 77.00 1.34 4
9 04/05/2023 02:40:57 -81.09, -2.02 103.01 04/05/2023 02:41:15 -81.08, -1.96 103.01 1.31 18
10 04/05/2023 03:31:31 81.08, 165.52 76.99 04/05/2023 03:31:55 81.08, 165.47 77.00 0.82 24



Historial Predications of SNOs between NOAA-15 and METOP-C
